| time (UTC) | temp F | wind direction | speed MPH | gust MPH | rain 1hr in | rain 24hr in | rain mn in | humidity % | barometer mb |
| 20260506060530 | 56 | 302 | 0.0 | 0.0 | 0.00 | 0.19 | 0.18 | 76 | 1016.1 |
| 20260506050534 | 57 | 302 | 0.0 | 0.0 | 0.00 | 0.19 | 0.18 | 74 | 1015.9 |
| 20260506045025 | 57 | 302 | 0.0 | 0.0 | 0.00 | 0.19 | 0.18 | 73 | 1015.6 |
| 20260506043524 | 58 | 302 | 0.0 | 0.0 | 0.00 | 0.19 | 0.18 | 73 | 1015.5 |
| 20260506042015 | 58 | 302 | 0.0 | 0.0 | 0.00 | 0.19 | 0.18 | 72 | 1015.4 |
| 20260506040538 | 58 | 302 | 0.0 | 2.0 | 0.00 | 0.19 | 0.18 | 72 | 1015.2 |
| 20260506035030 | 58 | 303 | 0.0 | 0.0 | 0.00 | 0.19 | 0.18 | 72 | 1015.0 |
| 20260506033523 | 58 | 292 | 0.0 | 4.0 | 0.00 | 0.19 | 0.18 | 72 | 1014.8 |
| 20260506032023 | 58 | 323 | 0.0 | 6.0 | 0.00 | 0.19 | 0.18 | 72 | 1014.7 |
| 20260506030530 | 59 | 292 | 0.0 | 2.0 | 0.00 | 0.19 | 0.18 | 71 | 1014.4 |
| 20260506025024 | 59 | 306 | 0.0 | 10.0 | 0.00 | 0.19 | 0.18 | 71 | 1014.2 |
| 20260506023522 | 60 | 291 | 1.0 | 9.0 | 0.00 | 0.19 | 0.18 | 69 | 1013.9 |
| 20260506022040 | 60 | 305 | 1.0 | 9.0 | 0.00 | 0.19 | 0.18 | 67 | 1013.7 |
| 20260506020517 | 61 | 301 | 3.0 | 11.0 | 0.00 | 0.19 | 0.18 | 65 | 1013.5 |
| 20260506015014 | 61 | 318 | 2.0 | 12.0 | 0.00 | 0.19 | 0.18 | 64 | 1013.4 |
| 20260506013529 | 62 | 257 | 5.0 | 12.0 | 0.00 | 0.19 | 0.18 | 64 | 1013.3 |
| 20260506012031 | 62 | 248 | 5.0 | 12.0 | 0.00 | 0.19 | 0.18 | 63 | 1013.3 |
| 20260506010528 | 63 | 269 | 2.0 | 11.0 | 0.00 | 0.19 | 0.18 | 62 | 1013.2 |
| 20260506005048 | 64 | 327 | 3.0 | 12.0 | 0.00 | 0.19 | 0.18 | 61 | 1013.2 |
| 20260506003525 | 63 | 261 | 5.0 | 13.0 | 0.00 | 0.19 | 0.18 | 62 | 1013.1 |
| 20260506002046 | 63 | 258 | 1.0 | 15.0 | 0.00 | 0.19 | 0.18 | 61 | 1013.0 |
| 20260506000552 | 65 | 240 | 6.0 | 18.0 | 0.00 | 0.19 | 0.18 | 56 | 1013.0 |
| 20260505235030 | 65 | 263 | 4.0 | 13.0 | 0.00 | 0.19 | 0.18 | 54 | 1013.0 |
| 20260505233528 | 65 | 279 | 9.0 | 16.0 | 0.00 | 0.19 | 0.18 | 54 | 1013.0 |
| 20260505232028 | 65 | 289 | 4.0 | 16.0 | 0.00 | 0.19 | 0.18 | 54 | 1013.1 |
| 20260505230534 | 66 | 310 | 4.0 | 15.0 | 0.00 | 0.19 | 0.18 | 52 | 1013.1 |
| 20260505225032 | 66 | 265 | 7.0 | 14.0 | 0.00 | 0.19 | 0.18 | 53 | 1013.2 |
| 20260505223532 | 65 | 275 | 7.0 | 17.0 | 0.00 | 0.19 | 0.18 | 56 | 1013.3 |
| 20260505222029 | 65 | 257 | 6.0 | 15.0 | 0.00 | 0.19 | 0.18 | 55 | 1013.4 |
| 20260505220529 | 65 | 246 | 5.0 | 14.0 | 0.00 | 0.19 | 0.18 | 53 | 1013.4 |
| 20260505215044 | 66 | 269 | 4.0 | 14.0 | 0.00 | 0.19 | 0.18 | 56 | 1013.3 |
| 20260505213526 | 66 | 261 | 3.0 | 12.0 | 0.00 | 0.19 | 0.18 | 58 | 1013.5 |
| 20260505212022 | 65 | 298 | 3.0 | 15.0 | 0.00 | 0.19 | 0.18 | 58 | 1013.7 |
| 20260505210541 | 65 | 298 | 7.0 | 18.0 | 0.00 | 0.19 | 0.18 | 58 | 1013.8 |
| 20260505205053 | 65 | 276 | 5.0 | 12.0 | 0.00 | 0.19 | 0.18 | 58 | 1013.8 |
| 20260505203529 | 63 | 304 | 4.0 | 12.0 | 0.00 | 0.19 | 0.18 | 64 | 1013.9 |
| 20260505202025 | 63 | 315 | 4.0 | 15.0 | 0.00 | 0.19 | 0.18 | 64 | 1013.9 |
| 20260505200525 | 62 | 326 | 3.0 | 12.0 | 0.00 | 0.19 | 0.18 | 66 | 1014.0 |
| 20260505195021 | 62 | 274 | 6.0 | 17.0 | 0.00 | 0.19 | 0.18 | 65 | 1014.2 |
| 20260505193520 | 62 | 282 | 4.0 | 11.0 | 0.00 | 0.19 | 0.18 | 62 | 1014.2 |
| 20260505192016 | 62 | 304 | 3.0 | 12.0 | 0.00 | 0.19 | 0.18 | 64 | 1014.2 |
| 20260505190531 | 62 | 288 | 5.0 | 13.0 | 0.00 | 0.19 | 0.18 | 65 | 1014.2 |
| 20260505185024 | 63 | 297 | 4.0 | 13.0 | 0.00 | 0.19 | 0.18 | 63 | 1014.1 |
| 20260505183535 | 61 | 272 | 5.0 | 15.0 | 0.00 | 0.19 | 0.18 | 67 | 1014.2 |
| 20260505182028 | 62 | 283 | 3.0 | 11.0 | 0.00 | 0.19 | 0.18 | 68 | 1014.2 |
| 20260505180517 | 61 | 280 | 4.0 | 13.0 | 0.00 | 0.19 | 0.18 | 70 | 1014.2 |
| 20260505175049 | 60 | 313 | 2.0 | 11.0 | 0.00 | 0.19 | 0.18 | 73 | 1014.1 |
| 20260505173519 | 59 | 261 | 4.0 | 8.0 | 0.00 | 0.19 | 0.18 | 77 | 1013.8 |
| 20260505172031 | 58 | 306 | 2.0 | 5.0 | 0.00 | 0.19 | 0.18 | 80 | 1013.7 |
| 20260505170524 | 59 | 297 | 0.0 | 4.0 | 0.00 | 0.19 | 0.18 | 80 | 1013.6 |
| 20260505165033 | 59 | 256 | 0.0 | 0.0 | 0.00 | 0.19 | 0.18 | 82 | 1013.5 |
| 20260505163527 | 58 | 261 | 0.0 | 0.0 | 0.00 | 0.19 | 0.18 | 85 | 1013.4 |
| 20260505162019 | 57 | 275 | 0.0 | 0.0 | 0.00 | 0.19 | 0.18 | 87 | 1013.4 |
| 20260505160528 | 56 | 275 | 0.0 | 0.0 | 0.00 | 0.19 | 0.18 | 88 | 1013.3 |
| 20260505152019 | 54 | 275 | 0.0 | 0.0 | 0.02 | 0.19 | 0.18 | 89 | 1013.2 |
| 20260505150540 | 54 | 275 | 0.0 | 0.0 | 0.06 | 0.19 | 0.18 | 89 | 1013.0 |
| 20260505140549 | 54 | 310 | 0.0 | 0.0 | 0.00 | 0.13 | 0.12 | 89 | 1012.5 |
| 20260505125020 | 55 | 252 | 4.0 | 10.0 | 0.01 | 0.13 | 0.12 | 89 | 1011.9 |
| 20260505123534 | 55 | 247 | 0.0 | 0.0 | 0.01 | 0.13 | 0.12 | 89 | 1011.9 |
| 20260505122052 | 55 | 247 | 2.0 | 5.0 | 0.01 | 0.13 | 0.12 | 89 | 1011.9 |
| 20260505120532 | 55 | 245 | 0.0 | 0.0 | 0.01 | 0.13 | 0.12 | 89 | 1011.7 |
| 20260505115027 | 55 | 245 | 0.0 | 0.0 | 0.00 | 0.12 | 0.11 | 89 | 1011.7 |
| 20260505113528 | 55 | 245 | 0.0 | 0.0 | 0.00 | 0.12 | 0.11 | 89 | 1011.6 |
| 20260505112021 | 55 | 245 | 0.0 | 0.0 | 0.00 | 0.12 | 0.11 | 89 | 1011.7 |
| 20260505110521 | 55 | 245 | 0.0 | 7.0 | 0.00 | 0.12 | 0.11 | 89 | 1011.7 |
| 20260505102027 | 55 | 234 | 0.0 | 0.0 | 0.01 | 0.12 | 0.11 | 88 | 1011.8 |
| 20260505100525 | 55 | 234 | 0.0 | 0.0 | 0.01 | 0.12 | 0.11 | 88 | 1011.9 |
| 20260505095047 | 55 | 234 | 0.0 | 0.0 | 0.01 | 0.12 | 0.11 | 88 | 1011.9 |
| 20260505093523 | 55 | 234 | 0.0 | 0.0 | 0.01 | 0.12 | 0.11 | 88 | 1012.0 |
| 20260505092035 | 55 | 233 | 0.0 | 0.0 | 0.01 | 0.11 | 0.10 | 87 | 1012.2 |
| 20260505090531 | 55 | 234 | 0.0 | 0.0 | 0.02 | 0.11 | 0.10 | 87 | 1012.2 |
| 20260505085043 | 55 | 233 | 0.0 | 0.0 | 0.06 | 0.11 | 0.10 | 87 | 1012.4 |
| 20260505083516 | 55 | 231 | 1.0 | 6.0 | 0.08 | 0.11 | 0.10 | 86 | 1012.6 |
| 20260505082031 | 55 | 174 | 0.0 | 3.0 | 0.07 | 0.10 | 0.09 | 86 | 1012.7 |
| 20260505080528 | 55 | 175 | 0.0 | 0.0 | 0.07 | 0.09 | 0.08 | 85 | 1012.8 |
| 20260505075023 | 56 | 175 | 0.0 | 4.0 | 0.05 | 0.05 | 0.04 | 84 | 1012.9 |
| 20260505073517 | 56 | 194 | 0.0 | 0.0 | 0.03 | 0.03 | 0.02 | 83 | 1012.9 |
| 20260505072026 | 56 | 194 | 0.0 | 0.0 | 0.03 | 0.03 | 0.02 | 82 | 1013.0 |
| 20260505070521 | 57 | 194 | 0.0 | 1.0 | 0.02 | 0.02 | 0.01 | 81 | 1013.1 |
| 20260505065054 | 58 | 194 | 0.0 | 0.0 | 0.00 | 0.00 | 0.00 | 78 | 1013.2 |
| 20260505063530 | 59 | 194 | 0.0 | 0.0 | 0.00 | 0.00 | 0.00 | 76 | 1013.2 |
| 20260505062046 | 59 | 224 | 0.0 | 0.0 | 0.00 | 0.00 | 0.00 | 75 | 1013.2 |